Regional Weather Roundup
Issued by NWS

Home | Current Version | Previous Version | Graphics & Text | Print | Product List | Glossary On
Versions: 1 2 3 4 5 6 7 8 9 10 11 12 13 14 15 16 17 18 19 20 21 22 23 24 25 26 27 28 29 30 31 32 33 34 35 36 37 38 39 40 41 42 43 44 45 46 47 48 49 50
000
ASUS43 KLSX 241807
RWRMO

WEATHER SUMMARY FOR MISSOURI
NATIONAL WEATHER SERVICE SPRINGFIELD MO
100 PM CDT SUN MAY 24 2015

NOTE: "FAIR" INDICATES FEW OR NO CLOUDS BELOW 12,000 FEET WITH NO
       SIGNIFICANT WEATHER AND/OR OBSTRUCTIONS TO VISIBILITY.
       CURRENT SKY AND/OR WEATHER CONDITIONS ARE NOT AVAILABLE FOR
       CHILLICOTHE AND FARMINGTON.

MOZ001>031-035>038-043-044-053-054-241900-
...NORTHERN AND WESTERN MISSOURI...

CITY           SKY/WX    TMP DP  RH WIND       PRES   REMARKS
KANSAS CTY INT DRIZZLE   67  65  93 S8        29.89F
6HR MIN TEMP:  63; 6HR MAX TEMP:  68; 6HR PCP:  0.09;

KANSAS C DTWN  LGT RAIN  69  63  81 SW6       29.88F
6HR MIN TEMP:  66; 6HR MAX TEMP:  69; 6HR PCP:  0.03;

LEE`S SUMMIT   CLOUDY    69  63  81 SW7       29.89F
6HR MIN TEMP:  64; 6HR MAX TEMP:  69; 6HR PCP:  0.01;

ST JOSEPH      LGT RAIN  69  64  84 S12       29.87F
6HR MIN TEMP:  61; 6HR MAX TEMP:  70; 6HR PCP:  0.03;

CHILLICOTHE      N/A     71  65  81 S8        29.90F
6HR MIN TEMP:  63; 6HR MAX TEMP:  71; 6HR PCP:  0.01;

KIRKSVILLE     CLOUDY    70  66  87 SW10G20   29.93F
6HR MIN TEMP:  60; 6HR MAX TEMP:  72; 6HR PCP:  0.13;


$$
MOZ066>068-077>081-088>096-101>105-241900-
...SOUTHWEST MISSOURI...

CITY           SKY/WX    TMP DP  RH WIND       PRES   REMARKS
SPRINGFIELD    LGT RAIN  68  64  87 S20G26    29.93S
6HR MIN TEMP:  65; 6HR MAX TEMP:  76; 6HR PCP:  0.14;

JOPLIN         CLOUDY    68  65  90 SW10      29.93R
6HR MIN TEMP:  64; 6HR MAX TEMP:  68; 6HR PCP:  0.24;


$$
MOZ032>034-039>042-045>050-055>058-069>072-241900-
...CENTRAL MISSOURI...

CITY           SKY/WX    TMP DP  RH WIND       PRES   REMARKS
COLUMBIA       PTSUNNY   78  68  71 S16G28    29.93F
6HR MIN TEMP:  64; 6HR MAX TEMP:  79; 6HR PCP: TRACE;

JEFFERSON CITY PTSUNNY   78  65  63 S15G23    29.92F
6HR MIN TEMP:  67; 6HR MAX TEMP:  79; 6HR PCP: TRACE;

ROLLA          PTSUNNY   75  66  73 S23G31    29.96F
6HR MIN TEMP:  68; 6HR MAX TEMP:  76; 6HR PCP:  0.19;

SEDALIA        CLOUDY    74  69  85 VRB5      29.89F
6HR MIN TEMP:  62; 6HR MAX TEMP:  75; 6HR PCP:  0.15;

WHITEMAN AFB   LGT RAIN  66  65  96 NW6       29.88F
WARRENSBURG    HVY RAIN  64  63  94 CALM      29.89F
OSAGE BEACH    PTSUNNY   79  64  61 S20G25    29.92F

$$
MOZ051-052-059>065-241900-
...EAST CENTRAL MISSOURI...

CITY           SKY/WX    TMP DP  RH WIND       PRES   REMARKS
ST LOUIS INTL  CLOUDY    82  64  54 S20G32    30.00F
6HR MIN TEMP:  67; 6HR MAX TEMP:  83;

SPIRIT OF STL  PTSUNNY   81  66  60 S14G21    29.97F
6HR MIN TEMP:  66; 6HR MAX TEMP:  82;

ST CHARLES     PTSUNNY   81  65  58 S22G31    29.98F
6HR MIN TEMP:  66; 6HR MAX TEMP:  82;


$$
MOZ072>076-082>087-097>100-106>115-241900-
...SOUTH CENTRAL AND SOUTHEAST MISSOURI...

CITY           SKY/WX    TMP DP  RH WIND       PRES   REMARKS
CAPE GIRARDEAU MOSUNNY   83  67  58 S15G25    30.05F
6HR MIN TEMP:  67; 6HR MAX TEMP:  83;

FARMINGTON     PTSUNNY   81  63  54 S17G31    30.06F
6HR MIN TEMP:  66; 6HR MAX TEMP:  81;

POPLAR BLUFF   PTSUNNY   81  65  58 S16G26    30.02F
6HR MIN TEMP:  69; 6HR MAX TEMP:  82; 6HR PCP: TRACE;

WEST PLAINS    PTSUNNY   77  67  71 S16G23    30.01F
6HR MIN TEMP:  66; 6HR MAX TEMP:  77; 6HR PCP:  0.05;


$$



USA.gov is the U.S. government's official web portal to all federal, state and local government web resources and services.